Flag for U.S.A. Weather past 2 weeks in Topeka, Kansas, U.S.A.

Now
66 °F

Fog.


Feels Like: 66 °F
Forecast: 56 / 74 °F
Wind: 5 mph from West

Location: Philip Billard Municipal Airport

Current Time: Sep 21, 2014 at 1:17:28 AM

Latest Report: Sep 21, 2014 at 12:53 AM


Visibility: 6 mi

Pressure: 29.99 "Hg

Humidity: 96%

Dew point: 65 °F

Location of TopekaLocation

Historic Weather in Topeka — Graph

°F

Topeka temperature yesterday

Maximum temperature yesterday: 88 °F (at 2:53 PM)
Minimum temperature yesterday: 67 °F (at 11:53 PM)
Average temperature yesterday: 74 °F

Past Weeks' High & Low Weather Summary

 TemperatureHumidityPressure
High94 °F (Sep 9, 3:53 PM)100% (Sep 7, 3:53 AM)30.44 "Hg (Sep 7, 3:53 AM)
Low38 °F (Sep 13, 6:04 AM)41% (Sep 7, 4:53 PM)29.49 "Hg (Sep 9, 11:53 PM)
Average66 °F80%30.06 "Hg
* Reported Sep 6 12:53 AM — Sep 21 12:02 AM, Topeka, Weather by CustomWeather, © 2014

Note: Actual official high and low records may vary slightly from our data, if they occured in-between our weather recording intervals... More about our weather records

Advertising

Topeka weather history for previous 24 hours

 ConditionsComfort  
Time TempWeatherWind HumidityBarometerVisibility
12:02 AM
Sep 21
66 °FFog.No wind100%30.01 "Hg2 mi
11:53 PM
Sep 20
67 °FFog.No wind100%29.99 "Hg1 mi
10:55 PM68 °FFog.No wind96%30.01 "Hg3 mi
9:53 PM69 °FFog.3 mph96%29.96 "Hg4 mi
8:53 PM70 °FClear.No wind97%29.95 "Hg9 mi
7:53 PM73 °FSunny.3 mph97%29.93 "Hg9 mi
6:53 PM76 °FSunny.No wind91%29.91 "Hg10 mi
5:53 PM75 °FPassing clouds.No wind90%29.90 "Hg10 mi
4:53 PM75 °FLight rain. Fog.No wind94%29.93 "Hg6 mi
3:53 PM85 °FSunny.6 mph55%29.90 "Hg10 mi
2:53 PM88 °FSunny.14 mph50%29.88 "Hg10 mi
1:53 PM87 °FPassing clouds.7 mph55%29.93 "Hg10 mi
12:53 PM86 °FSunny.9 mph59%29.93 "Hg10 mi
7:53 AM68 °FFog.No wind93%29.96 "Hg2 mi
6:53 AM69 °FFog.No wind96%29.93 "Hg5 mi
5:53 AM70 °FFog.6 mph93%29.90 "Hg6 mi
4:53 AM70 °FFog.7 mph93%29.90 "Hg5 mi
3:53 AM70 °FFog.9 mph97%29.90 "Hg5 mi
2:53 AM70 °FFog.10 mph93%29.90 "Hg5 mi
1:53 AM70 °FFog.12 mph93%29.90 "Hg6 mi
Weather by CustomWeather, © 2014

See weather overviewHow to use our weather pages